Dewpoint
54 53 54 54 53 55 58 56 53 54 56 51 49 47 48 46 45 44 43 43 46 43 42 42 41 41 40 40 37 37 38 38
52 53 53 53 53 57 57 54 54 55 52 48 46 46 44 44 43 44 43 42 41 41 41 42 40 39 39 40 38 34 34 35
51 52 52 52 55 57 56 53 55 54 50 49 47 44 43 43 43 42 42 41 41 37 36 31 33 35 37 37 37 35 38 35
49 51 52 53 56 57 56 53 55 55 51 49 45 44 44 43 43 43 33 26 27 29 30 30 31 32 30 33 38 37 34 33
46 51 52 53 56 57 56 55 54 56 50 47 43 41 41 42 41 31 26 26 29 31 31 32 33 35 35 38 39 37 35 32
43 51 52 53 56 56 56 55 54 52 49 47 43 42 42 39 29 25 26 28 31 31 32 34 34 39 39 38 37 35 35 33
47 52 53 53 56 56 56 50 49 47 45 44 43 39 35 27 25 23 26 30 30 29 33 33 36 39 38 37 37 37 36 35
50 53 54 55 56 53 47 45 45 45 43 42 37 32 27 25 24 25 26 27 28 27 30 31 34 38 38 38 37 37 37 36
51 54 54 55 54 48 45 44 42 40 38 37 31 28 27 26 27 27 27 27 27 30 29 30 32 37 37 38 36 35 37 36
51 53 53 53 48 44 45 43 38 37 35 33 31 30 29 28 28 28 27 28 28 28 29 29 30 30 35 37 36 35 35 34
52 52 51 49 43 42 43 42 38 39 35 32 32 31 30 29 28 27 28 28 27 28 28 28 29 29 29 32 32 32 29 31
51 50 49 46 43 42 42 41 38 37 37 33 31 30 30 29 27 28 28 27 28 27 28 28 28 29 30 29 29 28 29 30
49 49 47 45 43 42 41 41 38 37 33 31 31 33 32 30 28 29 28 27 28 27 27 27 29 29 30 29 28 29 29 28
46 46 46 45 44 43 41 40 36 33 32 33 34 33 31 30 30 29 29 28 27 27 26 27 28 30 30 29 29 29 28 29
41 42 44 45 45 44 43 39 35 35 33 33 33 33 32 31 30 29 28 28 27 26 27 27 29 30 29 28 27 26 26 24
39 38 38 41 43 43 43 37 37 35 34 34 34 33 34 33 30 29 29 29 28 27 27 28 28 30 30 29 27 25 23 22
34 35 38 40 42 43 43 38 37 35 34 33 33 35 33 31 30 30 29 30 30 30 29 30 29 29 30 30 27 23 21 20
35 40 41 41 43 43 43 41 38 35 33 32 35 32 31 32 31 30 31 31 32 31 31 31 29 29 29 30 26 21 19 20
33 34 41 42 43 43 43 40 35 32 32 32 32 33 32 33 32 31 32 32 29 28 27 28 29 29 30 28 23 20 19 21
Wind_Speed
28 24 24 26 21 21 19 16 20 18 17 16 13 14 12 12 14 14 14 14 15 14 13 11 9 9 8 6 5 6 5 3
28 28 26 22 20 22 23 22 18 18 16 18 17 15 13 13 13 14 14 15 13 11 9 8 7 7 5 4 2 4 5 4
26 27 25 26 26 22 19 20 18 16 15 13 12 15 8 12 13 13 14 13 12 11 11 11 10 7 7 6 4 3 1 7
30 31 30 26 26 27 24 23 22 18 15 13 13 8 10 7 9 10 11 14 13 14 12 10 8 5 3 3 4 2 1 6
27 28 26 27 27 27 26 23 20 20 21 18 24 19 17 10 11 10 11 10 12 12 11 9 7 5 4 3 6 4 5 3
28 32 32 29 27 26 26 22 19 16 20 22 22 17 11 14 15 15 11 10 11 10 9 8 9 7 10 11 12 11 6 3
18 22 25 24 20 20 17 19 18 19 19 20 24 24 22 20 16 14 11 10 9 8 9 8 7 9 9 9 9 7 5 4
25 25 26 22 22 20 19 20 17 16 20 21 21 22 21 21 17 12 12 9 6 6 6 7 5 7 7 8 7 5 4 3
26 25 25 26 25 24 24 24 21 16 17 19 17 19 17 14 12 11 10 9 8 7 6 5 8 2 3 4 2 2 4 5
24 22 24 25 24 25 26 22 19 22 21 20 17 15 17 16 13 13 11 9 7 7 6 5 5 4 1 3 5 7 4 6
21 22 21 19 22 24 22 23 26 22 21 20 18 17 16 16 15 13 10 9 6 6 5 3 2 3 4 3 2 3 3 3
26 24 24 24 21 23 25 26 28 27 25 23 23 21 20 18 17 15 12 9 7 5 3 0 2 4 4 3 2 1 4 5
26 26 25 26 28 26 29 27 28 29 27 25 24 21 19 18 17 15 15 12 9 8 4 2 4 5 5 6 4 2 7 6
19 19 25 28 29 27 27 27 28 25 23 22 21 21 20 19 18 17 16 13 11 8 6 5 7 8 9 8 6 8 8 7
19 18 22 24 26 27 21 18 18 21 22 21 22 22 20 19 19 19 16 12 11 10 9 9 9 10 11 11 11 10 9 8
7 9 15 16 17 16 15 17 20 22 22 21 22 20 18 17 16 13 10 9 10 9 10 12 13 12 12 15 13 12 10 7
1 6 15 23 22 19 17 20 22 22 22 22 20 16 14 17 16 12 7 2 2 9 16 15 17 14 15 19 15 13 10 8
10 4 7 15 19 21 23 22 19 21 19 17 15 19 21 17 14 11 8 6 11 17 16 17 18 16 17 19 15 9 6 5
13 9 3 12 17 20 18 17 15 16 15 15 16 17 16 14 13 10 7 6 9 11 14 15 14 13 14 16 15 12 10 9
Wind_Direction
173 172 170 169 170 164 159 155 147 143 136 131 124 124 125 131 124 125 115 106 112 96 85 80 70 63 45 33 47 26 20 5
171 170 172 168 168 164 167 160 159 143 144 145 143 146 139 130 126 126 117 110 103 99 95 86 66 56 31 40 28 2 351 17
176 174 174 173 169 170 171 166 166 161 161 161 149 153 158 142 136 120 112 113 111 101 95 80 64 59 39 18 3 326 7 23
178 180 178 174 170 171 176 179 177 174 166 137 131 117 121 133 129 115 114 116 114 109 105 97 82 75 41 357 7 91 236 62
180 177 180 176 178 179 181 185 183 180 168 164 168 172 165 166 149 139 131 124 115 111 103 95 83 59 40 66 85 110 123 129
179 183 182 182 178 180 184 181 183 187 181 175 174 169 160 147 139 139 131 113 114 107 103 92 71 73 101 109 99 94 98 121
183 183 174 181 182 182 183 169 175 177 171 164 170 165 153 147 152 149 142 121 104 90 88 76 77 127 128 127 116 117 132 142
171 165 174 176 181 169 160 159 161 168 165 160 155 153 151 156 162 153 141 129 115 93 96 87 62 149 153 154 139 150 161 184
167 168 172 171 175 169 164 159 156 154 149 148 143 147 152 150 146 140 135 132 129 120 77 61 65 127 173 192 200 221 196 219
170 172 172 173 168 168 161 155 150 153 148 147 154 151 143 143 136 133 132 127 122 96 84 52 54 36 52 249 300 316 306 256
177 177 176 172 170 164 154 155 157 157 154 155 156 155 147 144 140 138 139 132 115 98 93 71 27 349 12 36 309 341 304 277
183 180 177 173 166 167 163 161 163 168 167 167 160 159 157 157 156 153 154 150 140 139 133 46 304 321 322 153 216 185 168 140
184 181 175 175 175 174 177 176 177 179 174 168 164 161 163 163 163 164 160 167 163 169 176 240 279 293 230 226 256 179 190 198
190 174 181 185 188 187 184 185 185 175 165 164 166 168 171 172 172 169 178 170 171 176 188 243 263 264 235 238 211 168 186 199
193 193 196 198 199 199 188 182 167 167 167 169 172 177 179 178 177 177 172 170 178 199 217 239 253 259 233 203 172 177 184 178
211 210 218 220 209 197 179 166 169 171 172 174 181 182 181 173 163 158 151 175 201 222 242 255 252 252 238 212 196 193 189 193
106 239 214 204 195 187 172 175 181 175 178 183 180 175 147 138 134 133 112 123 281 268 269 266 258 249 231 215 200 195 195 201
64 71 201 193 185 177 182 183 175 180 175 172 155 138 133 130 112 88 59 6 294 280 284 269 264 250 238 207 190 187 180 228
36 20 289 206 194 191 184 168 153 141 126 120 123 120 116 101 92 82 48 283 285 297 302 300 282 260 216 186 177 182 189 199